Wind_Speed
12 11 5 1 1 1 1 2 3 4 3 4 4 6 9 11 2 3 16 13 24 21 19 16 16 15 14 15 15 15 15 14 14 14 14 15 15 16 16 15 14 14 13 14 14 15 15 15 15
11 5 2 1 1 2 3 3 8 6 9 11 8 7 8 4 6 13 11 26 24 22 20 17 16 16 16 15 15 15 15 15 14 15 15 15 14 14 14 14 14 13 13 13 14 15 14 14 15
7 2 1 1 1 2 3 1 11 13 10 6 5 6 4 4 12 12 18 27 25 22 20 17 18 17 16 16 16 15 14 16 16 16 15 15 14 14 14 13 12 12 12 12 12 13 13 13 15
0 2 1 2 1 0 6 6 11 10 5 8 12 9 5 14 7 14 29 27 24 22 19 18 17 16 16 16 14 15 14 14 13 14 14 13 12 11 12 11 11 11 11 11 11 12 12 13 14
1 1 2 1 3 5 10 13 3 4 5 6 3 5 4 4 19 32 29 26 25 23 19 18 17 16 15 15 15 14 14 14 14 13 13 12 11 9 9 9 8 9 10 10 11 11 11 14 13
0 1 3 3 4 9 7 6 10 9 10 10 11 8 3 22 28 24 26 26 24 23 19 19 17 15 15 13 14 15 13 13 11 10 9 9 9 8 8 7 6 7 9 11 11 12 13 13 12
2 2 2 4 5 3 4 2 7 9 9 7 8 6 5 13 25 24 25 24 23 21 21 19 17 15 14 13 13 13 12 11 11 10 9 8 6 6 6 6 6 8 8 9 12 11 12 11 11
2 2 3 2 3 3 5 2 6 7 6 11 11 7 10 13 26 24 23 23 22 21 19 17 17 16 14 13 12 12 11 10 9 8 7 7 6 5 5 7 8 7 9 9 12 13 13 14 14
6 1 1 4 1 3 9 4 3 6 12 4 2 9 17 26 27 23 21 21 21 19 18 17 17 16 14 13 11 11 8 8 8 8 8 6 6 7 6 8 10 11 11 12 13 15 17 17 14
3 2 5 7 2 2 4 7 4 3 11 10 13 17 29 27 24 20 17 17 21 19 19 17 16 16 14 13 12 9 9 8 8 8 9 9 8 8 8 11 12 12 12 13 15 17 18 17 14
5 5 4 5 6 3 7 12 6 11 1 15 19 22 23 24 20 19 17 25 26 21 19 18 17 16 14 12 12 12 10 7 6 8 10 11 11 12 10 9 11 14 15 14 17 20 19 15 11
3 4 5 6 7 4 3 3 6 7 5 8 16 23 21 19 17 19 17 17 21 22 20 19 17 15 14 10 11 11 11 8 8 8 10 12 12 12 10 8 11 11 12 14 15 16 16 14 11
3 6 5 11 12 11 9 7 6 11 14 9 18 20 19 16 19 21 26 24 23 23 20 20 17 14 13 10 10 12 11 8 6 7 10 12 12 11 7 11 11 10 12 12 13 13 12 11 10
5 12 10 9 11 8 13 7 12 5 7 11 18 18 17 17 20 19 21 23 26 24 21 20 17 13 10 12 10 11 9 7 9 10 10 10 8 9 10 9 11 11 11 12 12 11 11 10 10
14 10 6 3 10 5 10 5 10 10 5 12 14 14 15 14 18 23 26 28 29 26 23 20 18 14 12 12 10 11 9 9 10 10 9 9 7 7 8 9 8 9 11 10 10 10 9 8 8
4 5 3 5 4 4 4 4 9 12 11 15 16 13 13 10 20 25 27 30 31 26 26 23 20 16 14 12 11 9 10 9 10 10 7 8 7 9 10 10 9 9 8 7 7 7 8 9 9
5 4 3 3 5 4 2 2 7 10 9 9 14 15 12 11 13 22 29 32 33 30 28 26 23 20 17 13 9 7 12 14 13 11 8 8 11 11 11 12 14 11 7 5 7 9 9 10 10
4 3 4 5 4 3 4 3 4 10 11 13 9 13 12 12 14 23 30 32 33 34 30 28 25 21 19 16 9 7 10 12 14 13 10 10 12 14 13 11 12 11 9 7 7 8 9 11 12
3 1 6 2 5 3 4 6 10 10 5 6 7 11 14 12 17 24 30 32 33 36 33 30 27 22 20 18 12 8 11 14 14 13 12 14 11 11 15 15 13 11 12 10 9 11 8 6 6
3 3 4 1 5 3 6 7 6 10 10 8 9 10 14 9 13 19 26 28 31 36 34 30 28 26 21 21 15 13 14 18 15 14 13 13 10 12 11 11 10 11 13 11 10 9 6 7 7
3 4 3 2 3 2 4 4 6 8 7 13 13 12 13 15 15 17 23 28 29 32 36 32 29 27 26 22 17 14 15 20 14 13 13 12 8 14 13 11 9 10 12 12 8 8 7 5 5
5 7 8 6 5 4 2 3 5 7 14 14 16 9 13 14 17 17 23 27 30 34 38 35 30 28 27 22 18 14 19 19 18 18 14 12 10 12 9 7 7 4 9 12 11 8 8 9 8
10 7 6 6 5 3 1 3 6 3 8 10 13 13 12 14 18 20 24 34 35 32 37 38 34 29 29 24 20 14 19 26 24 18 15 14 13 11 9 8 9 8 7 12 12 10 9 8 7
3 2 2 4 3 2 6 5 6 6 13 16 14 17 17 14 19 19 30 33 32 32 34 39 38 35 31 28 23 19 17 27 23 19 19 17 14 12 12 10 11 9 8 10 12 12 10 9 8
5 5 2 2 0 6 6 3 13 8 6 13 17 14 16 16 17 19 19 26 30 31 32 36 40 39 34 31 26 21 18 24 25 23 22 21 17 14 14 14 13 11 9 11 11 13 13 10 8
6 9 6 6 4 4 6 6 8 8 15 13 16 15 12 16 16 21 22 31 34 35 35 35 38 38 38 34 30 25 18 19 27 26 24 20 22 22 15 17 15 12 11 10 10 11 12 12 11
4 5 9 5 1 2 5 7 9 5 9 11 15 14 17 17 18 22 23 32 34 35 36 38 37 38 38 38 34 31 24 18 26 29 27 24 23 24 19 19 18 15 13 12 11 11 12 11 10
7 6 4 2 6 5 5 5 5 5 2 3 8 15 13 13 16 15 17 29 30 32 36 36 38 39 40 39 38 35 31 24 21 22 26 27 24 22 22 21 20 19 17 15 14 13 12 13 12
3 3 3 5 5 6 2 7 7 8 8 7 8 8 6 8 12 13 15 24 27 28 30 29 31 34 35 40 41 38 37 30 23 22 21 25 24 22 22 23 26 23 21 20 19 17 15 17 16
8 9 8 5 5 2 4 7 5 3 4 11 8 9 6 8 9 8 8 21 23 27 33 36 29 30 33 38 39 40 38 36 30 27 24 24 27 24 23 20 23 28 25 22 23 22 20 19 20
Wind_Direction
152 146 153 223 274 150 278 33 94 82 54 347 121 113 113 31 73 167 149 157 149 146 143 139 136 131 126 123 127 127 128 126 122 119 119 121 115 114 111 112 112 113 114 111 112 115 116 114 111
141 144 224 229 208 103 5 351 93 106 122 98 80 84 47 79 59 118 118 153 147 144 143 142 139 132 127 127 124 125 123 124 125 126 124 122 121 114 114 116 115 114 111 108 112 117 124 125 123
136 65 337 315 260 110 121 298 115 131 145 115 110 82 80 92 115 135 152 151 147 143 142 141 135 136 134 133 129 128 132 130 129 128 128 128 126 126 124 122 120 119 117 115 116 118 127 131 134
86 258 204 302 14 258 117 153 127 133 77 62 108 73 69 120 130 150 151 151 146 144 145 142 137 135 140 135 134 138 133 129 128 123 128 125 122 126 124 121 124 128 124 126 121 122 126 136 130
312 269 287 327 309 100 128 143 112 100 100 88 127 100 65 61 137 146 152 154 149 147 149 144 143 143 141 140 142 136 138 135 135 135 134 131 130 125 118 123 128 132 134 134 133 135 137 141 130
238 130 23 13 96 107 125 134 103 90 96 105 93 102 75 135 134 151 152 154 153 150 150 144 146 146 145 147 142 138 138 136 134 130 129 130 132 132 131 135 144 146 149 145 144 146 146 144 136
97 44 346 310 90 59 124 192 118 124 101 72 128 95 122 140 146 155 157 155 151 149 153 153 153 152 152 150 147 142 140 139 141 140 137 135 130 129 125 133 153 161 163 163 161 151 143 142 144
75 92 0 346 34 62 129 49 115 106 71 113 139 153 156 161 154 157 155 155 154 156 159 157 153 160 154 153 149 144 141 141 137 139 139 134 132 132 127 120 122 149 152 156 161 162 151 152 156
135 119 47 280 325 44 41 89 261 67 131 181 205 126 149 147 143 140 145 156 159 164 165 161 159 163 161 155 151 143 140 139 143 147 141 150 152 141 129 121 115 127 136 149 157 158 154 154 157
169 204 193 172 86 44 28 49 356 110 150 101 92 113 137 142 144 143 152 163 169 174 174 171 167 167 166 163 157 157 153 162 158 156 150 146 145 139 128 119 116 117 124 137 148 154 156 160 164
188 203 207 125 108 70 12 30 10 122 195 149 143 143 149 149 152 156 166 172 174 177 174 175 170 168 164 168 160 156 157 156 157 166 161 152 144 140 131 126 119 116 127 138 146 151 159 167 173
205 211 122 104 127 149 76 50 36 352 336 184 142 146 150 154 163 166 172 182 174 173 173 169 168 169 164 165 163 161 162 151 138 140 165 160 153 152 144 144 136 129 125 133 142 149 155 160 167
246 121 92 133 111 100 104 91 29 7 331 166 142 149 158 162 172 173 176 180 171 172 178 172 174 181 175 175 165 162 169 159 160 142 145 162 165 167 166 154 153 148 147 152 154 154 161 171 179
97 95 106 125 141 166 158 167 147 284 303 158 158 158 163 168 173 170 175 182 176 177 181 180 179 185 194 179 182 180 171 170 173 163 151 159 181 174 189 158 168 171 176 179 183 183 189 197 218
113 90 57 69 160 174 116 133 208 164 248 169 179 164 169 174 174 169 175 181 183 184 183 187 175 177 181 188 186 174 182 189 155 152 166 154 159 167 172 161 152 163 168 178 195 206 217 226 234
87 85 127 208 177 127 236 148 167 187 185 178 179 183 184 172 181 180 177 184 187 185 188 186 188 180 186 185 193 199 196 197 172 158 143 134 153 154 144 161 158 162 165 173 192 211 217 228 232
6 185 193 291 194 121 177 220 202 203 187 171 185 188 194 180 188 189 185 186 187 189 183 182 188 185 183 183 180 185 196 199 183 176 178 158 156 159 149 162 158 164 172 198 223 227 225 222 221
157 119 217 222 151 109 158 220 146 201 210 179 176 193 201 188 191 185 190 190 186 183 182 183 185 185 177 184 188 186 195 194 181 178 161 152 148 157 158 150 170 175 168 158 153 172 200 232 235
118 123 283 108 132 135 184 176 195 195 211 232 202 194 197 194 189 180 183 185 178 179 183 187 189 190 188 186 191 208 198 190 189 178 151 146 155 163 178 167 171 178 173 157 145 134 139 145 164
130 254 277 294 147 142 180 218 239 193 217 218 223 207 197 180 168 174 174 174 177 180 187 190 193 193 196 191 190 191 190 192 188 181 171 166 175 184 167 179 186 186 182 163 167 169 147 134 169
145 191 247 241 134 35 186 270 194 226 202 214 230 217 199 177 177 172 174 177 181 182 187 189 192 199 194 193 192 186 202 201 193 191 186 179 176 175 172 175 181 186 184 185 181 187 200 186 186
266 176 237 138 121 218 203 265 257 198 198 192 202 187 193 182 179 173 175 180 183 189 189 189 194 197 196 197 188 182 190 185 196 200 192 186 177 177 195 201 192 187 199 202 200 209 224 230 219
238 158 205 174 166 121 89 65 267 156 205 200 201 200 192 181 179 179 181 182 188 187 190 191 194 199 202 201 197 188 195 192 198 202 192 177 178 186 199 209 211 205 217 211 210 215 224 231 232
52 43 38 74 100 286 195 138 261 190 212 209 196 199 186 183 181 184 185 183 185 187 189 192 195 199 202 201 198 203 199 198 197 200 198 194 193 207 203 205 207 213 222 220 224 222 226 233 229
102 90 316 354 301 227 183 152 249 252 217 216 195 200 185 178 182 179 182 185 185 185 188 192 196 200 204 205 200 203 206 208 206 204 200 201 205 207 212 213 208 215 228 224 231 226 228 234 237
168 156 164 187 213 241 172 231 248 240 272 198 213 174 182 181 185 183 183 186 186 187 188 189 193 200 203 205 206 207 209 210 207 212 204 208 208 216 229 215 220 225 228 229 228 224 228 237 241
196 154 191 134 16 76 235 295 307 290 314 185 178 184 188 189 190 187 184 187 188 189 191 191 193 202 205 205 206 208 215 220 212 215 213 217 218 218 219 223 228 230 230 231 231 234 237 236 241
157 182 86 8 176 212 275 266 238 256 146 187 176 185 195 193 194 185 182 189 190 192 192 194 196 199 206 210 212 211 212 219 217 212 219 224 225 224 225 231 236 237 239 240 237 238 233 241 246
89 155 85 127 145 184 183 273 218 235 185 168 107 86 86 172 183 185 182 180 181 187 195 200 199 200 201 211 216 216 215 216 213 213 215 221 227 231 237 242 239 237 240 242 242 244 247 252 258
169 188 164 156 230 215 167 255 274 199 167 130 124 111 121 128 126 117 157 172 173 181 189 195 203 205 206 208 215 218 219 217 214 213 218 221 227 234 235 254 245 235 239 241 243 249 252 256 260
Height
765 768 770 772 786 784 780 772 755 766 770 759 758 765 780 781 785 808 790 793 797 800 803 804 805 807 808 809 810 811 812 813 814 816 817 819 820 821 821 822 822 823 824 825 825 825 826 827 828
767 769 769 772 787 788 786 763 766 764 764 760 763 768 778 790 783 789 792 795 798 801 803 804 806 808 809 810 812 813 814 815 815 816 818 820 821 822 823 824 824 824 825 826 827 828 828 829 829
767 766 773 778 780 786 790 767 763 760 757 757 769 769 780 790 788 791 792 797 800 802 804 806 808 810 810 812 812 814 815 815 816 817 819 821 823 823 824 825 826 826 827 828 829 830 831 831 831
767 768 770 780 779 761 766 766 759 762 757 759 766 783 781 785 788 790 795 799 801 804 806 808 810 812 812 813 814 815 817 818 819 819 822 823 824 825 827 827 827 827 828 829 830 831 832 832 833
769 769 783 782 774 761 757 755 755 765 766 767 767 788 790 790 789 793 797 800 802 805 807 810 812 813 814 815 815 817 818 820 821 821 822 824 825 826 826 829 830 830 830 831 832 833 834 835 836
774 774 787 788 771 761 760 754 758 765 768 770 777 784 794 792 793 797 799 801 804 806 809 811 813 814 815 816 817 818 820 822 823 825 826 826 826 827 828 830 831 831 832 832 834 834 835 837 838
774 781 795 786 775 775 771 762 761 768 771 775 771 792 797 796 796 799 802 803 806 808 809 812 813 815 816 818 819 821 822 824 824 825 826 827 827 828 828 830 831 831 832 833 834 835 837 839 840
773 782 788 784 782 782 766 768 763 765 775 769 771 794 799 794 797 801 804 805 808 809 811 813 815 816 818 819 821 822 824 826 827 828 828 829 828 829 830 831 832 831 833 834 835 836 838 840 841
772 787 795 786 780 779 767 772 767 763 769 771 770 778 787 793 798 802 806 808 810 812 812 814 816 817 819 821 823 824 826 828 828 828 829 830 829 830 831 833 833 833 834 835 836 838 840 842 844
776 788 776 769 773 777 772 770 775 776 778 780 780 785 790 797 800 802 806 808 810 812 812 814 816 817 819 822 824 825 826 827 828 829 830 830 830 831 833 834 834 835 836 837 838 840 842 844 845
769 782 761 768 769 769 775 778 767 781 790 781 784 787 792 797 801 803 806 806 807 811 812 814 817 819 820 823 825 825 826 827 828 830 830 830 831 832 833 835 836 837 838 840 841 842 843 846 847
771 755 763 768 768 774 780 787 787 788 789 782 783 785 791 796 800 802 805 809 810 811 813 815 818 820 821 823 825 827 827 828 829 830 831 832 832 833 834 836 838 839 841 842 843 844 845 847 849
763 759 761 763 767 776 780 792 794 791 782 781 787 789 794 798 801 801 803 807 811 812 814 816 819 821 822 824 826 827 828 829 830 830 832 833 833 834 835 837 839 840 842 844 845 847 848 849 850
760 763 767 768 770 773 777 789 786 785 786 785 789 792 794 796 799 802 805 806 809 812 813 816 819 821 823 825 826 828 829 830 831 832 833 834 835 835 837 838 840 841 843 845 846 848 849 850 851
756 774 774 775 777 779 778 797 797 786 785 785 789 790 793 793 797 799 801 804 806 811 814 816 818 821 822 824 826 828 830 831 832 833 834 835 835 836 837 839 841 842 844 846 847 848 850 851 851
765 778 797 776 776 776 783 802 787 785 784 782 786 788 791 792 793 795 799 803 807 809 814 816 818 821 823 824 827 829 830 832 832 833 834 835 836 837 838 840 842 843 844 847 848 849 850 851 851
779 798 796 787 773 779 785 799 784 783 783 783 781 785 789 792 794 794 797 802 804 808 812 816 818 820 823 825 827 828 830 832 833 834 834 835 836 837 839 841 843 843 844 846 847 848 850 851 851
791 796 790 789 782 782 790 790 786 784 783 779 781 781 787 789 791 792 795 799 802 805 811 814 817 820 822 825 826 827 829 831 833 835 836 835 837 838 840 842 843 844 844 846 846 848 849 850 851
771 778 782 773 776 782 788 789 783 781 785 783 782 778 781 785 786 790 793 796 800 804 809 813 815 818 821 823 825 826 827 830 832 834 836 837 838 839 841 843 845 846 846 846 847 848 849 849 850
772 777 780 776 777 779 791 789 780 777 779 778 778 775 776 781 783 788 792 796 799 802 807 812 814 817 820 822 824 826 827 830 832 833 835 837 838 839 840 842 844 846 847 847 849 849 849 849 851
776 780 778 781 781 778 784 789 784 773 771 771 772 769 770 774 780 783 790 793 798 801 804 808 813 816 819 822 823 825 827 829 832 833 834 837 838 839 841 843 844 845 846 848 849 849 850 850 851
786 762 762 778 790 805 778 811 781 773 770 768 766 767 766 768 772 777 784 790 794 797 801 806 811 815 818 821 823 823 825 827 830 832 834 836 838 839 841 842 843 844 845 846 848 849 849 849 850
767 753 762 772 786 791 792 806 783 765 772 766 761 759 761 761 765 771 776 781 787 794 799 802 808 813 817 819 823 823 825 827 830 832 834 836 837 838 840 842 843 845 845 846 847 848 849 850 851
748 756 764 780 795 812 790 797 783 777 750 742 746 747 752 756 758 764 770 777 784 790 796 799 804 809 813 817 821 824 825 827 830 832 835 837 838 839 840 842 843 845 846 847 847 848 849 850 850
759 779 808 817 818 813 787 798 760 739 738 733 734 740 743 748 752 758 767 773 780 786 792 796 799 804 809 813 818 822 824 826 828 830 832 834 837 838 840 842 843 845 846 847 847 848 849 849 850
769 779 814 822 822 805 785 796 760 726 713 717 718 724 738 743 745 749 756 764 773 779 786 791 795 799 803 809 815 819 822 823 826 829 830 832 834 837 839 841 843 844 845 846 846 847 849 849 850
766 783 768 794 796 807 795 766 737 724 722 716 719 725 730 738 739 741 749 758 766 774 780 785 790 797 800 804 809 814 820 822 823 826 829 831 833 836 838 841 842 844 845 845 846 847 848 848 849
750 754 786 797 811 815 796 780 768 737 728 720 720 723 724 729 736 739 747 754 763 770 776 783 787 792 797 802 807 810 814 820 823 824 825 828 831 834 836 838 839 841 843 844 845 845 846 847 847
760 767 771 780 792 802 814 790 739 730 722 721 725 726 725 726 732 737 741 752 761 772 778 784 787 791 793 799 804 808 810 816 820 821 822 825 829 832 834 835 836 838 840 842 843 844 845 845 846
744 757 763 789 791 795 795 781 722 716 725 718 727 728 727 727 730 736 742 749 759 768 770 776 785 789 791 794 800 804 808 812 816 817 820 821 824 828 830 831 832 834 836 838 840 841 842 842 842